Weather Roundup
Issued by NWS Chicago, IL

Home | Current Version | Previous Version | Text Only | Print | Product List | Glossary On
Versions: 1 2 3 4 5 6 7 8 9 10 11 12 13 14 15 16 17 18 19 20 21 22 23 24 25 26 27 28 29 30 31 32 33 34 35 36 37 38 39 40 41 42 43 44 45 46 47 48 49 50
000
NZUS59 KLOT 010400
HRRLOT

CHICAGO AREA WEATHER ROUNDUP
NATIONAL WEATHER SERVICE CHICAGO/ROMEOVILLE IL
1000 PM CST SAT FEB 28 2015

NOTE: "FAIR" INDICATES FEW OR NO CLOUDS BELOW 12,000 FEET WITH NO
SIGNIFICANT WEATHER AND/OR OBSTRUCTIONS TO VISIBILITY.

* THESE STATIONS ARE NOT UNDER NWS QUALITY CONTROL. THEY ALSO MAY NOT
  REPORT WEATHER SUCH AS PRECIPITATION OR FOG.

ILZ005-006-012>014-019>023-010500-
NORTHEAST ILLINOIS

CITY           SKY/WX    TMP DP  RH WIND       PRES   REMARKS
OHARE          LGT SNOW  17  14  88 S7        30.49F FOG     WCI   8
MIDWAY         LGT SNOW  20  15  81 SE7       30.50F WCI  11
AURORA         CLOUDY    16  10  77 SE6       30.49F HAZE    WCI   7
LANSING*       LGT SNOW  18  14  85 SE7       30.49F WCI   9
WAUKEGAN       CLOUDY    16  12  84 SW8       30.49F FOG     WCI   5
DUPAGE AIRPORT LGT SNOW  17  13  84 SE5       30.48F FOG     WCI  10
WHEELING       LGT SNOW  18  13  80 S6        30.51F WCI  10
NORTHERLY IS     N/A     19  14  81 SE9         N/A  WCI   8
$$

WIZ051-052-058>065-066-070>072-010500-
SOUTHEAST WISCONSIN

CITY           SKY/WX    TMP DP  RH WIND       PRES   REMARKS
MILWAUKEE      LGT SNOW  18   8  65 SW9       30.49S WCI   7
KENOSHA*       CLOUDY    18  12  77 SW5       30.49S HAZE    WCI  11
RACINE*        LGT SNOW  19  10  68 SW7       30.51R WCI  10
$$

INZ001>003-010>013-019-020-010500-
NORTHWEST INDIANA

CITY           SKY/WX    TMP DP  RH WIND       PRES   REMARKS
GARY*          LGT SNOW  20  13  72 SE3       30.50F
MICHIGAN CITY* NOT AVBL
RENSSELAER*    NOT AVBL
$$

LMZ740>746-010500-
SOUTHERN LAKE MICHIGAN

STATION/POSITION TIME  SKY/WX   TEMP WIND        PRES    VSBY
                                AIR  DIR/SP/G
                 (UTC)          (F)  (DEG/KT/KT) (MB)    (MI)
HARRISON CRIB    0300            19  150/ 12/ 15   N/A
BURNHAM HARBOR   0400            19  130/  6/  8   N/A
CALUMET HARBOR   0300            18  150/  6/  8 1031.8F
BURNS HARBOR     NOT AVBL
MICHIGAN CITY    0300            18  120/  5/  8   N/A
$$

ABBREVIATIONS USED IN REMARKS
   TC - TEMPERATURE IN CELSIUS
  WCI - WIND CHILL INDEX
   HX - HEAT INDEX
  VSB - VISIBILITY
$$



USA.gov is the U.S. government's official web portal to all federal, state and local government web resources and services.